This is the latest recevied weather packets stored in our database for station/object K5NWZ. If no packets are shown the sender has not sent any weather packets the latest 10 day(s).
| Time | Temp. | Humidity | Pressure | Rain* | Wind** | Luminosity | Snow |
|---|---|---|---|---|---|---|---|
| 1777545272 | 6.67° C | 52% | 1029.8 hPa | 0 mm | - | 0 W/m² | - |
| 1777544970 | 6.67° C | 51% | 1029.9 hPa | 0 mm | - | 0 W/m² | - |
| 1777544666 | 6.67° C | 52% | 1029.8 hPa | 0 mm | - | 0 W/m² | - |
| 1777544362 | 6.67° C | 51% | 1029.8 hPa | 0 mm | - | 0 W/m² | - |
| 1777544060 | 6.67° C | 51% | 1029.7 hPa | 0 mm | - | 0 W/m² | - |
| 1777543757 | 6.67° C | 52% | 1029.8 hPa | 0 mm | - | 0 W/m² | - |
| 1777543452 | 6.67° C | 52% | 1029.9 hPa | 0 mm | - | 0 W/m² | - |
| 1777543148 | 6.67° C | 52% | 1029.8 hPa | 0 mm | - | 0 W/m² | - |
| 1777542844 | 6.67° C | 52% | 1029.6 hPa | 0 mm | - | 0 W/m² | - |
| 1777542541 | 6.67° C | 51% | 1029.7 hPa | 0 mm | - | 0 W/m² | - |
| 1777542237 | 6.67° C | 51% | 1029.7 hPa | 0 mm | - | 0 W/m² | - |
| 1777541935 | 6.67° C | 51% | 1029.6 hPa | 0 mm | - | 0 W/m² | - |
| 1777541632 | 6.67° C | 52% | 1029.5 hPa | 0 mm | - | 0 W/m² | - |
| 1777541329 | 7.22° C | 52% | 1029.6 hPa | 0 mm | - | 0 W/m² | - |
| 1777541024 | 7.22° C | 52% | 1029.5 hPa | 0 mm | - | 0 W/m² | - |
| 1777540721 | 7.22° C | 51% | 1029.3 hPa | 0 mm | - | 0 W/m² | - |
| 1777540419 | 7.22° C | 49% | 1029.5 hPa | 0 mm | - | 0 W/m² | - |
| 1777540115 | 7.22° C | 49% | 1029.4 hPa | 0 mm | - | 0 W/m² | - |
| 1777539815 | 7.22° C | 50% | 1029.3 hPa | 0 mm | - | 0 W/m² | - |
| 1777539512 | 7.78° C | 50% | 1029.1 hPa | 0 mm | - | 0 W/m² | - |
| 1777539208 | 7.78° C | 50% | 1029.4 hPa | 0 mm | - | 0 W/m² | - |
| 1777538905 | 7.78° C | 50% | 1029.3 hPa | 0 mm | - | 0 W/m² | - |
| 1777538601 | 7.78° C | 53% | 1029.3 hPa | 0 mm | - | 0 W/m² | - |
| 1777538297 | 7.78° C | 57% | 1028.9 hPa | 0 mm | - | 0 W/m² | - |
| 1777537992 | 7.78° C | 57% | 1029.4 hPa | 0 mm | - | 0 W/m² | - |
* Rain latest hour (hover to see other rain measurements)
** Current wind speed in m/s (hover to see current wind gust speed)